This is the latest recevied weather packets stored in our database for station/object W4CAT-13. If no packets are shown the sender has not sent any weather packets the latest 10 day(s).
| Time | Temp. | Humidity | Pressure | Rain* | Wind** | Luminosity | Snow |
|---|---|---|---|---|---|---|---|
| 1777816683 | 9.44° C | 79% | 984.4 hPa | 0 mm | - | - | - |
| 1777815753 | 8.89° C | 84% | 984.4 hPa | 0 mm | - | - | - |
| 1777814823 | 8.33° C | 80% | 984.4 hPa | 0 mm | - | - | - |
| 1777813893 | 8.33° C | 81% | 984.4 hPa | 0 mm | - | - | - |
| 1777812963 | 7.22° C | 81% | 984.1 hPa | 0 mm | - | - | - |
| 1777811103 | 6.67° C | 81% | 984.1 hPa | 0 mm | - | - | - |
| 1777810173 | 6.11° C | 82% | 984.1 hPa | 0 mm | - | - | - |
| 1777809243 | 5.56° C | 85% | 983.7 hPa | 0 mm | - | - | - |
| 1777808401 | 5° C | 87% | 983.7 hPa | 0 mm | - | - | - |
| 1777808343 | 5° C | 87% | 983.7 hPa | 0 mm | - | - | - |
| 1777807413 | 5° C | 86% | 983.4 hPa | 0 mm | - | - | - |
| 1777805553 | 5° C | 86% | 983.1 hPa | 0 mm | - | - | - |
| 1777804623 | 5.56° C | 84% | 982.7 hPa | 0 mm | - | - | - |
| 1777803693 | 5.56° C | 86% | 982.7 hPa | 0 mm | - | - | - |
| 1777802763 | 5° C | 88% | 982.7 hPa | 0 mm | - | - | - |
| 1777801833 | 5° C | 92% | 983 hPa | 0 mm | - | - | - |
| 1777800903 | 5° C | 93% | 982.7 hPa | 0 mm | - | - | - |
| 1777799043 | 5.56° C | 96% | 982.7 hPa | 0 mm | - | - | - |
| 1777798113 | 5.56° C | 96% | 982.7 hPa | 0 mm | - | - | - |
| 1777797183 | 5.56° C | 97% | 982.7 hPa | 0 mm | - | - | - |
| 1777796253 | 5.56° C | 97% | 982.7 hPa | 0 mm | - | - | - |
| 1777795352 | 5.56° C | 98% | 982.7 hPa | 0 mm | - | - | - |
| 1777794424 | 6.11° C | 98% | 982.4 hPa | 0 mm | - | - | - |
| 1777793493 | 6.11° C | 98% | 982.7 hPa | 0 mm | - | - | - |
| 1777792563 | 6.11° C | 98% | 982.7 hPa | 0 mm | - | - | - |
* Rain latest hour (hover to see other rain measurements)
** Current wind speed in m/s (hover to see current wind gust speed)